Location: PSU-Greenbush Astrophysical Observatory
(37.5140°N, 94.9880°W)
Time: 07:47:30
(UTC-06:00)

Altair - Pass Details

Date: 02 February 2020
Orbit: 1502 x 1682 km, 47.2° (Epoch: 22 February)

Event Time Altitude Azimuth Distance (km) Brightness Sun altitude
Rises 08:23:53 0° 266° (W) 4,849 9.6 10.1°
Reaches altitude 10° 08:27:08 10° 271° (W) 3,885 9.1 10.6°
Maximum altitude 08:36:52 53° 347° (NNW) 1,984 8.0 12.3°
Drops below altitude 10° 08:46:47 10° 63° (ENE) 3,946 10.1 13.9°
Sets 08:50:06 0° 69° (ENE) 4,931 10.6 14.4°
